Location: Bois de la Silve
(44.4667°N, 6.7833°E)
Time: 10:36:43
(UTC+00:00)

Lacrosse 5 - Pass Details

Date: 14 July 2020
Orbit: 717 x 720 km, 57.0° (Epoch: 02 August)

Event Time Altitude Azimuth Distance (km) Brightness Sun altitude
Exits shadow 00:10:41 40° 256° (WSW) 1,045 2.5 -23.5°
Maximum altitude 00:12:21 65° 322° (NW) 789 2.1 -23.5°
Drops below altitude 10° 00:17:25 10° 45° (NE) 2,207 5.1 -23.3°
Sets 00:19:49 0° 48° (NE) 3,130 6.0 -23.2°
